GFSNGP_prec_cloud_003.txt.gz
Cloud_Cover
0 0 0 0 0 0 0 0 5 3 80 63 39 45 99 92 7 5 5 5 5 5 5 12 36 36 42 80 15 5 0 0 0 5 47 40 87 49 100 100 100 100 86 0
0 0 0 0 0 0 0 0 0 20 48 5 5 5 5 5 5 5 5 5 5 5 5 5 5 65 18 5 5 5 4 0 0 0 5 5 79 100 100 94 33 100 35 5
24 4 3 0 0 0 0 1 10 6 6 5 5 0 5 37 11 37 55 33 5 5 5 5 6 5 5 5 3 3 5 1 0 2 6 54 46 100 100 100 91 100 7 16
6 25 3 1 3 0 0 2 2 5 5 5 5 6 78 65 77 48 8 5 5 5 5 5 5 5 5 5 5 5 5 0 2 0 0 5 40 100 100 100 100 1 100 6
82 7 5 5 5 2 0 0 1 4 5 3 5 14 22 40 66 5 5 5 5 5 5 14 21 37 6 5 5 3 0 4 1 3 5 9 85 100 100 78 6 100 64 5
28 22 5 5 4 4 5 1 0 5 5 5 5 16 43 25 5 5 5 5 5 5 5 5 5 5 5 5 5 3 2 0 0 0 36 99 70 84 100 95 100 50 5 0
89 5 4 0 5 5 2 1 5 5 16 5 35 5 5 5 5 5 5 5 5 5 5 5 5 5 4 2 5 2 3 0 0 3 5 9 50 100 100 94 52 5 5 13
45 43 5 3 5 5 5 5 5 10 5 5 83 12 5 5 5 5 5 28 6 5 5 5 5 5 5 4 3 5 0 2 5 5 86 77 100 100 99 42 5 21 5 28
45 5 3 0 5 5 2 4 45 19 5 5 7 51 5 5 5 5 50 5 5 5 5 5 5 5 5 5 30 2 0 0 5 35 88 100 99 94 12 10 91 5 5 5
4 5 5 5 5 5 5 5 5 5 5 23 10 44 59 12 5 10 5 5 4 5 4 5 5 5 5 6 22 3 0 0 0 4 3 14 66 5 5 6 5 5 5 5
5 20 6 92 5 2 5 37 93 79 66 100 100 96 64 71 78 9 5 5 5 5 6 4 5 5 5 37 5 5 5 4 0 3 3 2 5 14 48 44 22 10 5 6
45 18 100 86 5 48 94 100 20 8 99 100 66 9 62 99 13 5 5 5 5 5 5 5 5 5 5 2 65 29 5 5 5 5 5 38 98 100 59 5 12 5 5 42
60 75 98 6 40 85 100 70 55 78 84 42 77 91 18 27 32 5 5 5 5 5 5 5 5 5 11 100 100 98 94 64 5 5 5 9 82 57 64 64 65 36 8 91
100 100 34 90 100 100 67 73 84 60 92 100 30 11 5 5 5 6 7 5 46 23 5 5 5 28 100 100 100 99 99 21 5 8 5 5 86 100 100 100 93 94 17 64
100 100 96 100 100 80 100 93 80 72 54 11 69 9 20 5 29 14 22 72 83 5 8 8 9 48 100 91 72 91 97 15 67 88 53 25 100 100 100 100 100 100 100 61
100 100 96 100 100 100 96 97 67 67 66 95 5 7 7 5 10 54 84 100 27 26 18 35 61 100 100 100 26 97 78 5 78 98 96 21 100 100 100 100 100 100 100 100
100 100 100 100 100 100 100 89 100 100 88 6 5 5 5 5 22 77 100 100 100 100 100 99 94 100 100 100 93 100 98 87 96 100 86 94 100 100 100 100 100 100 100 100
100 100 100 99 100 100 100 100 100 86 68 38 5 28 53 60 53 86 100 100 100 100 100 74 100 100 100 100 90 99 100 98 97 72 82 99 100 100 99 100 100 100 100 100
100 100 100 100 100 100 100 97 83 100 95 74 70 57 44 100 100 100 100 100 100 100 44 100 100 100 99 57 18 5 5 5 5 100 100 80 88 100 100 100 100 100 100 100
100 100 100 100 100 100 100 100 96 90 97 99 87 93 90 100 100 44 91 100 100 55 93 69 97 100 100 99 54 5 5 28 20 94 95 64 65 100 100 100 100 100 100 100
100 100 100 100 100 100 100 100 77 86 100 100 100 100 100 100 72 26 99 76 15 5 93 86 100 100 100 100 98 82 83 39 25 99 94 46 84 96 100 100 100 100 100 100
100 100 100 100 100 100 100 100 100 100 100 100 100 100 100 98 13 18 85 59 8 68 80 92 100 90 100 99 98 100 82 81 27 55 93 56 93 99 99 100 100 100 100 100
100 100 100 100 100 100 100 100 100 100 100 100 100 94 100 100 75 84 48 52 93 100 100 100 100 100 100 100 100 100 100 95 81 51 44 38 84 100 100 100 100 100 100 100
100 100 100 100 100 100 100 100 100 100 100 100 98 100 100 100 43 30 67 100 100 100 100 100 100 100 100 100 100 100 100 100 92 59 94 83 73 92 100 100 100 100 100 100
100 100 100 100 100 100 100 100 100 100 94 44 100 100 81 99 90 35 87 100 100 100 100 100 100 100 100 100 99 96 100 93 97 100 88 98 100 96 100 100 100 100 100 100
100 100 100 100 100 100 100 100 100 69 36 69 35 81 54 11 92 91 98 100 100 100 100 100 99 100 100 100 100 100 97 100 100 100 91 97 100 100 100 100 100 100 100 100
100 100 100 100 100 96 40 75 90 72 98 100 100 80 64 100 100 100 100 100 86 85 98 100 100 100 100 100 100 100 100 100 100 100 100 100 100 100 100 100 100 100 100 100

GFSNGP_prec_cloud_006.txt.gz
Cloud_Cover
0 3 5 5 0 0 0 2 4 0 0 2 4 5 5 4 5 79 94 98 98 96 26 5 20 36 24 7 5 5 5 5 5 0 0 0 7 5 84 100 60 98 100 100
0 1 1 0 0 0 0 0 0 0 0 0 0 5 5 5 5 68 99 100 100 32 5 6 12 56 5 5 5 5 5 0 0 0 0 0 0 5 40 85 97 100 100 98
5 14 3 5 4 0 0 0 0 0 0 0 0 0 4 5 6 71 100 100 94 17 21 33 7 14 7 10 5 1 1 2 5 5 0 0 2 11 24 55 92 100 99 26
5 9 5 5 5 0 0 0 0 0 0 0 4 6 16 75 89 21 7 62 86 44 70 71 22 5 5 4 5 5 5 3 5 0 1 0 38 86 100 99 90 95 10 5
69 42 5 5 5 5 5 3 0 5 1 3 3 5 8 11 5 5 6 44 24 8 9 5 5 5 5 24 14 5 5 5 0 0 4 0 11 20 81 17 71 89 100 54
89 5 5 5 5 26 14 52 5 5 98 100 63 62 12 5 5 5 11 5 5 5 6 10 6 21 16 10 5 5 5 5 3 1 1 5 5 45 44 64 81 100 100 5
60 6 38 8 6 63 47 5 3 8 100 100 99 59 24 14 47 71 5 5 5 5 5 12 26 6 5 5 5 3 5 5 5 0 5 54 94 46 6 96 100 100 27 77
100 100 100 94 18 42 7 5 5 78 90 7 53 67 72 96 78 6 34 11 9 66 89 62 26 5 5 7 1 34 5 5 0 3 6 100 97 85 76 74 72 47 26 22
100 100 100 100 97 38 5 5 99 100 6 39 64 76 44 5 5 71 13 9 68 77 70 6 5 5 5 4 42 20 5 5 4 0 3 9 13 6 5 5 5 11 5 19
94 99 100 77 100 44 17 66 98 70 8 9 70 28 8 8 92 5 5 46 87 89 32 6 5 5 5 33 34 4 5 5 5 2 2 5 4 5 5 31 78 8 5 5
5 45 5 52 18 5 5 40 78 93 81 91 79 97 95 83 6 5 9 94 75 41 18 5 4 5 5 96 8 7 92 78 82 26 5 5 5 24 97 99 81 5 5 5
5 15 8 47 5 5 36 99 100 100 100 88 65 71 62 6 5 14 68 100 97 46 5 5 5 36 32 68 44 89 100 100 99 100 12 5 18 63 98 99 33 5 5 5
80 100 97 92 77 99 100 72 43 98 81 100 88 70 5 12 46 74 84 43 6 5 5 5 8 70 100 29 100 100 100 100 100 100 54 40 68 97 10 12 5 63 10 5
100 100 100 100 100 100 100 100 100 100 84 94 85 12 32 36 7 37 5 5 5 5 5 5 59 83 5 46 95 97 90 100 99 100 100 99 86 5 97 95 40 5 8 5
100 100 100 100 100 100 98 100 100 100 100 99 96 81 42 5 56 21 31 5 5 11 27 100 100 76 78 100 100 94 100 98 99 96 100 97 99 6 62 100 100 88 65 53
100 100 100 100 100 100 100 100 100 100 100 100 96 97 60 6 5 55 66 75 60 99 96 100 100 45 100 100 100 94 100 100 96 97 99 100 100 29 100 100 100 100 96 66
6 32 14 89 100 100 96 100 100 100 100 98 87 71 57 8 87 68 79 98 100 100 100 100 100 100 100 100 100 100 93 100 100 100 100 100 100 44 100 100 100 100 98 86
100 100 100 100 100 100 100 100 98 100 99 91 98 93 100 100 90 81 99 100 100 100 100 100 100 100 100 100 100 100 91 100 100 88 98 93 38 95 100 100 99 98 88 94
100 100 100 100 100 100 100 100 100 100 93 65 89 100 100 100 98 100 100 100 100 100 100 58 97 100 100 100 100 94 82 12 31 24 7 94 89 77 100 100 100 100 100 78
100 100 100 100 100 100 100 100 100 100 100 100 100 100 100 100 100 100 100 100 100 59 5 10 97 42 100 97 79 100 93 39 50 51 46 24 90 61 100 100 93 100 91 79
100 100 100 100 100 100 100 100 95 100 100 100 100 100 100 100 100 100 100 67 5 73 71 99 100 86 100 100 100 100 92 98 91 86 86 94 80 90 95 100 100 94 100 97
100 100 100 100 100 100 100 100 99 100 100 100 100 100 100 100 100 100 64 20 5 79 100 100 100 100 100 100 100 100 100 100 100 99 100 99 100 100 100 100 95 100 100 97
100 100 100 100 100 100 100 100 100 100 100 100 100 100 100 100 100 100 96 5 5 44 87 100 100 100 100 100 100 100 100 100 100 100 99 95 100 95 95 100 100 100 98 100
100 100 100 100 100 100 100 100 100 100 100 100 100 100 100 100 100 74 22 17 45 82 100 99 100 100 100 100 100 100 100 98 91 80 99 100 100 100 100 100 100 96 100 100
100 100 100 100 100 100 100 100 100 100 100 90 68 100 99 100 100 20 83 83 100 100 100 81 100 100 100 100 100 100 92 87 92 100 100 100 100 100 100 100 100 100 100 100
100 100 100 100 100 100 100 100 100 82 100 92 56 22 77 100 99 100 100 100 100 100 99 100 87 97 100 100 100 100 100 100 100 100 100 100 100 100 100 100 100 100 100 100
100 100 100 92 91 43 41 99 100 60 30 16 17 28 29 76 100 100 100 100 100 100 100 100 98 100 96 86 97 100 100 100 100 100 100 100 100 100 100 100 100 100 100 100

GFSNGP_prec_cloud_009.txt.gz
Cloud_Cover
1 0 0 0 0 0 0 5 2 4 2 0 0 0 0 0 2 5 5 22 83 86 74 100 100 99 71 6 5 5 5 0 5 5 5 3 0 0 5 77 92 5 5 68
4 0 0 0 0 3 5 5 5 5 5 0 0 0 0 0 5 5 52 100 100 100 100 98 40 5 5 5 5 5 5 5 5 5 5 0 0 5 5 82 79 92 95 100
5 8 5 5 4 5 5 5 5 5 5 5 5 5 5 5 5 5 90 100 100 99 31 61 5 5 5 5 5 11 12 27 6 5 5 0 0 5 5 28 97 93 56 5
5 5 5 18 37 5 5 5 2 9 54 5 5 5 16 5 29 54 100 95 73 6 16 5 5 5 5 37 100 88 56 75 59 5 5 0 0 5 5 41 5 5 5 24
5 10 37 99 98 5 5 42 5 5 5 64 75 5 51 5 11 16 11 23 73 5 5 5 6 25 74 100 82 80 97 34 2 0 0 2 5 5 31 16 5 5 93 100
78 23 5 100 6 6 8 99 81 50 31 87 100 100 100 68 98 21 30 100 53 5 5 5 31 20 100 100 99 99 15 0 4 2 5 2 5 5 61 86 72 81 100 99
96 5 85 100 100 100 100 71 100 100 100 100 100 100 66 100 64 79 100 64 5 5 5 42 92 100 87 98 99 14 3 4 5 5 5 2 5 7 75 75 64 30 65 84
68 99 100 100 100 100 100 100 57 56 99 100 95 89 100 100 100 100 84 41 6 7 69 100 92 72 79 59 13 2 5 5 13 9 5 1 5 5 5 5 85 70 80 78
100 100 100 100 64 85 81 6 6 32 75 100 100 100 100 100 100 96 99 36 5 59 100 76 26 46 5 20 2 5 5 5 92 100 49 5 0 2 5 5 33 100 100 49
100 100 100 18 32 100 18 16 10 96 100 100 100 100 100 100 89 100 86 22 54 92 80 47 56 39 15 5 4 5 86 100 100 100 80 47 5 5 5 84 100 100 94 5
80 75 5 96 100 100 100 92 100 100 93 64 69 100 100 100 100 62 76 64 85 100 38 24 57 8 5 4 5 46 100 100 90 87 99 60 9 30 65 74 82 94 5 5
5 96 46 54 91 62 8 88 74 34 52 96 99 100 100 100 100 99 100 100 89 88 34 74 6 5 5 32 24 99 100 94 82 100 100 92 62 38 52 74 96 68 61 57
5 6 11 18 6 40 48 99 79 100 100 89 100 100 100 100 100 100 83 51 98 70 37 23 7 54 60 58 96 95 100 100 100 100 99 99 100 100 81 5 10 57 18 6
34 10 24 84 41 95 100 100 100 94 97 100 98 100 100 100 100 100 100 100 100 100 69 10 65 87 23 66 100 100 99 67 96 99 90 99 100 100 95 20 92 42 7 5
100 100 100 100 100 100 100 100 100 100 100 100 100 100 100 100 100 100 100 100 100 100 50 81 100 68 78 99 100 100 100 100 99 100 100 100 100 100 100 99 97 66 68 38
84 100 100 100 100 100 100 100 100 100 100 100 100 100 100 100 100 100 100 100 100 85 100 100 100 99 100 100 100 100 100 100 100 100 100 100 96 95 100 100 87 70 68 56
97 95 88 95 52 72 100 100 100 100 100 100 100 100 100 100 100 100 100 100 100 100 100 71 100 100 100 100 100 100 100 100 100 100 100 97 93 94 100 94 96 19 66 49
79 99 90 100 100 100 100 100 100 98 100 100 100 100 100 100 100 100 100 100 100 100 97 100 100 39 99 100 100 100 100 100 100 100 100 100 91 72 91 55 97 88 34 72
100 100 100 100 100 100 100 100 100 100 100 100 100 100 100 100 100 100 100 100 100 100 100 100 58 77 97 67 98 100 100 96 100 100 100 82 79 91 87 75 76 86 70 65
100 100 100 100 100 100 100 100 100 100 100 100 100 100 100 100 98 100 100 100 100 100 100 12 99 100 100 100 100 100 100 100 100 100 100 90 68 28 64 86 100 100 100 100
100 100 100 100 100 100 100 100 100 100 100 100 100 100 100 100 100 100 100 100 100 60 5 17 94 100 100 100 100 100 100 100 100 100 100 100 97 100 91 80 99 100 100 100
100 100 100 100 100 100 100 100 100 100 100 100 100 100 100 100 100 100 100 100 9 16 10 5 21 87 96 100 100 100 100 100 100 100 100 100 100 98 100 100 100 100 100 100
100 98 100 100 100 100 100 100 100 100 100 100 100 100 100 100 100 100 100 67 70 31 46 80 96 90 100 100 100 100 100 100 100 100 100 100 100 100 100 100 100 100 100 100
100 100 100 100 100 100 100 100 100 100 100 100 100 77 24 69 100 99 86 80 93 97 100 100 99 85 86 100 100 100 100 100 100 100 100 94 100 100 100 100 100 100 100 100
100 100 100 100 100 100 100 100 78 5 5 17 79 44 42 100 100 44 57 97 100 100 100 98 98 94 97 100 100 100 100 100 98 99 82 96 97 100 100 100 100 100 100 100
89 70 42 3 17 5 5 10 50 80 100 100 100 61 67 82 65 80 95 100 100 100 100 100 97 65 72 100 100 100 91 84 86 97 100 100 100 96 94 96 100 100 100 100
8 20 35 17 6 14 56 100 100 100 100 100 100 99 98 100 100 95 97 100 98 99 95 92 76 25 72 99 100 100 80 79 70 91 92 92 100 99 95 85 93 100 100 100

GFSNGP_prec_cloud_012.txt.gz
Cloud_Cover
5 5 5 5 0 0 0 0 3 0 0 5 5 5 5 5 4 3 5 5 27 100 82 28 100 100 46 45 5 5 5 5 5 5 5 5 5 5 5 4 22 100 51 87
0 1 5 15 5 5 5 21 23 5 5 5 5 5 5 5 5 17 5 20 100 100 100 100 21 28 33 59 5 5 6 45 31 45 8 34 39 24 0 5 30 5 82 92
5 5 53 99 5 8 21 71 5 17 10 5 16 68 80 98 100 100 100 100 100 100 90 25 61 6 5 5 20 46 83 62 25 12 90 100 18 4 0 5 5 5 27 5
5 5 61 38 54 5 6 5 5 5 8 28 100 100 100 84 100 100 100 100 99 39 73 54 52 82 50 77 89 100 100 69 53 80 100 28 5 0 4 5 76 84 51 72
32 15 79 100 99 34 5 5 45 5 95 42 25 96 100 77 68 30 96 90 23 87 100 100 100 100 93 94 100 100 100 100 87 100 28 5 0 4 5 5 48 100 100 99
34 11 31 100 100 94 4 36 100 100 100 100 97 100 100 59 6 52 83 66 100 100 100 100 100 81 100 100 96 100 100 100 99 16 5 5 5 6 5 75 98 75 24 5
94 5 74 100 83 47 90 100 100 100 93 99 98 69 100 61 92 100 100 100 100 100 100 100 67 97 100 100 100 100 100 85 14 5 5 73 14 59 5 5 5 42 5 45
63 57 94 51 63 100 100 100 100 46 76 85 99 100 93 100 100 100 100 100 100 100 100 78 95 100 100 100 100 100 84 6 5 0 6 70 81 5 5 5 5 5 50 84
80 98 71 86 100 75 100 100 60 79 82 100 100 89 96 100 100 100 100 100 100 100 100 99 100 100 100 100 98 90 5 4 5 5 17 97 5 5 5 5 5 83 100 81
100 100 100 71 97 100 19 5 33 95 100 100 100 100 100 100 100 100 100 100 100 100 100 100 100 100 100 94 73 5 5 5 5 6 25 75 97 98 79 33 99 98 77 98
31 35 10 99 100 96 30 52 70 100 96 80 100 100 100 100 100 99 100 100 100 100 100 100 100 95 60 5 5 5 36 60 27 91 86 78 76 98 61 5 5 5 92 83
4 5 5 74 98 66 84 100 100 100 100 100 99 85 100 100 100 100 100 100 100 100 100 99 100 100 16 5 5 9 97 100 100 100 100 93 98 100 69 24 7 5 30 71
5 5 5 31 65 56 52 84 86 73 79 100 100 100 100 100 100 100 100 100 99 99 100 100 100 54 68 17 60 64 100 100 99 97 89 99 100 95 100 74 21 94 24 56
44 6 13 42 8 46 94 96 100 100 100 100 100 100 100 100 100 100 100 100 100 100 100 100 97 100 87 66 73 61 100 100 100 99 100 100 100 100 100 85 39 94 50 39
43 34 8 14 58 99 100 98 100 100 100 100 100 100 100 100 100 100 100 100 100 100 100 91 100 100 91 86 43 98 100 100 100 100 100 100 100 100 100 100 89 100 77 23
100 100 97 97 99 47 53 97 100 100 100 100 100 100 100 100 100 100 100 100 100 100 100 100 100 100 100 64 99 100 96 100 100 100 100 100 100 71 78 93 98 100 96 32
100 90 69 56 59 95 100 100 100 100 100 100 100 100 100 100 100 100 100 100 100 100 74 93 100 100 90 99 67 83 99 100 100 100 99 100 100 99 94 92 100 91 69 82
80 64 100 100 100 100 100 100 100 100 100 100 100 100 100 100 100 100 100 100 100 94 100 100 100 99 35 99 100 100 97 100 100 97 98 100 90 94 99 99 92 66 53 95
100 100 100 100 100 100 100 100 100 100 100 100 100 100 100 100 100 100 100 100 100 83 100 100 56 5 78 100 100 100 100 100 100 100 100 100 98 72 72 87 90 86 64 90
100 100 100 100 100 100 100 100 100 100 100 100 100 100 100 100 100 94 100 100 100 100 100 44 5 5 51 88 100 100 100 100 100 100 100 100 100 100 62 95 94 93 98 96
100 100 100 100 100 100 100 100 100 100 100 100 100 100 99 100 100 100 100 100 100 100 95 18 12 6 11 65 92 100 100 100 100 100 100 100 100 100 100 100 93 98 100 100
100 100 100 100 100 100 100 100 100 100 100 100 99 100 100 100 100 100 100 100 89 67 31 20 14 71 98 100 94 100 100 100 100 100 100 100 100 100 100 100 100 100 100 100
100 100 100 100 100 100 100 100 100 100 100 100 100 100 100 100 100 100 98 9 98 26 63 81 96 100 98 74 100 100 100 99 97 100 90 95 98 99 100 100 100 100 100 100
100 98 99 100 100 100 100 100 100 100 100 100 100 77 32 42 18 15 5 24 85 98 100 98 100 99 74 99 83 100 100 100 100 100 98 100 100 74 67 77 90 98 99 100
100 100 98 97 92 88 88 51 30 19 78 100 100 100 100 94 100 84 100 100 100 100 99 96 96 97 94 99 100 100 86 94 100 100 86 95 72 94 99 97 97 100 86 95
36 67 57 32 68 97 100 100 100 100 100 100 100 100 100 77 96 98 96 100 100 96 98 93 96 96 98 100 100 100 100 100 98 100 100 100 88 93 95 78 64 100 95 79
100 100 100 91 100 100 89 62 88 80 91 100 85 91 100 99 86 97 100 100 100 96 100 100 100 100 99 100 100 100 100 100 94 97 100 100 100 100 100 100 100 100 100 100

GFSNGP_prec_cloud_015.txt.gz
Cloud_Cover
4 5 5 5 5 4 5 3 5 5 8 87 10 47 17 5 5 92 100 100 98 88 100 74 90 97 69 81 5 5 5 5 5 5 52 68 30 96 99 57 13 5 6 40
5 5 5 63 22 5 5 2 5 5 5 5 5 5 5 6 61 46 44 58 75 98 100 100 61 41 5 5 5 5 8 13 25 87 93 100 100 100 100 36 2 5 5 6
69 8 27 100 10 5 5 5 5 32 8 5 5 14 54 96 35 47 31 6 50 79 100 100 97 8 60 92 20 40 60 76 100 100 100 100 99 82 5 2 0 5 11 75
20 5 90 77 58 5 5 5 5 5 5 5 63 100 100 91 91 95 62 56 50 98 100 99 48 94 99 23 53 98 100 100 100 100 93 54 78 53 0 0 2 5 6 6
5 5 73 99 78 96 5 6 5 5 5 91 100 100 100 100 68 64 70 95 100 100 99 100 71 92 86 96 100 100 100 100 100 100 70 68 38 6 5 4 5 5 5 5
10 23 82 100 100 28 5 54 50 93 97 100 97 54 100 41 32 99 100 100 100 100 100 100 93 100 100 100 100 100 100 100 96 38 50 100 98 5 5 5 3 5 5 5
22 42 95 29 5 5 44 74 100 100 100 96 93 76 85 73 60 76 100 100 100 100 99 100 100 100 100 100 100 100 93 89 44 53 100 52 5 5 5 5 5 5 5 5
48 100 28 5 53 88 71 100 73 16 52 5 21 87 31 75 100 100 100 100 100 100 100 100 100 100 100 82 100 96 96 42 54 100 46 5 5 5 5 5 5 5 5 5
98 100 20 5 33 100 100 65 5 5 5 46 67 96 73 94 100 100 100 100 100 100 100 100 100 98 98 99 96 91 72 100 94 10 5 5 9 5 9 51 5 5 55 84
22 99 93 100 100 87 5 5 5 5 7 61 100 93 100 100 100 100 100 100 100 100 100 100 96 91 83 100 98 99 100 100 75 86 35 51 51 16 48 58 5 18 5 8
100 100 98 96 42 5 5 25 25 11 65 73 40 32 30 78 100 100 100 100 100 100 100 100 100 100 100 98 100 100 100 27 86 100 100 100 100 78 70 54 5 5 5 5
45 34 5 8 20 48 43 77 82 89 100 82 60 97 100 100 100 100 100 100 100 100 100 100 100 100 100 98 92 85 100 5 86 85 85 94 96 81 68 68 56 5 5 5
5 5 5 13 61 60 43 82 77 63 19 48 78 93 100 100 100 100 100 100 100 100 100 100 100 100 100 100 100 100 11 30 96 65 100 84 95 98 80 66 56 5 5 5
5 5 5 5 5 5 49 40 10 10 63 92 100 100 100 100 100 100 100 100 100 100 100 100 100 100 100 100 64 30 9 82 79 100 97 98 100 99 100 100 94 5 5 46
5 5 5 5 5 10 49 88 92 98 100 100 100 100 100 100 100 100 100 100 100 100 100 100 100 100 100 84 100 85 100 100 100 99 96 98 95 97 86 94 68 32 15 16
87 84 62 24 26 54 99 100 100 100 100 100 100 100 100 100 100 100 100 100 100 100 100 100 100 100 100 100 67 82 100 100 100 100 100 99 94 70 77 64 54 68 74 74
100 100 100 100 100 100 100 100 100 100 100 100 100 100 100 100 100 100 100 100 100 100 100 100 100 100 100 79 34 100 100 100 34 97 100 93 95 100 82 96 64 78 22 13
100 100 100 100 100 100 100 99 100 100 100 100 100 100 100 100 100 100 100 100 100 100 100 100 100 98 51 96 100 100 94 69 53 100 98 100 100 100 100 94 60 88 61 60
100 100 100 100 100 100 100 100 100 100 100 100 100 100 100 100 100 100 100 100 100 100 100 100 100 100 100 100 92 74 69 86 97 100 100 100 100 100 100 94 76 25 69 71
100 100 100 100 100 100 100 100 100 100 100 100 100 100 100 100 100 100 100 100 100 100 100 100 100 82 66 5 7 48 99 100 100 100 100 100 100 100 100 90 78 74 73 100
100 98 100 100 100 100 100 100 100 100 100 100 100 100 100 100 100 100 100 100 100 91 36 51 54 64 5 31 76 97 100 100 100 98 100 100 100 100 100 100 88 100 100 88
71 59 64 72 88 89 82 99 100 98 100 100 100 100 100 100 86 90 100 95 5 11 95 36 5 15 24 74 58 78 92 100 100 100 100 99 100 100 100 100 98 98 99 99
82 75 75 98 99 93 94 99 97 90 55 50 60 77 97 100 100 100 100 30 35 49 73 77 89 89 67 95 96 66 93 100 100 100 100 94 100 100 100 100 99 95 99 84
95 92 49 12 33 14 52 59 95 69 94 100 100 100 100 100 100 35 59 86 100 100 100 100 100 96 84 100 90 92 99 100 100 100 99 100 100 100 100 99 96 87 96 100
33 64 70 90 100 100 100 70 61 80 69 23 12 38 95 100 100 100 99 63 98 100 100 98 82 100 100 99 88 98 100 100 100 100 100 100 100 100 100 100 100 100 94 61
98 98 96 100 100 95 96 82 84 72 87 85 51 33 5 36 96 100 88 97 100 100 100 100 100 100 100 100 93 98 100 100 100 100 100 100 100 100 100 100 100 100 100 100
93 58 42 46 64 70 61 37 88 98 96 99 100 75 62 85 59 42 39 89 100 100 100 100 100 100 100 100 100 100 100 100 100 100 100 100 100 100 100 100 100 100 100 100